Regional Weather Roundup
Issued by NWS

Home | Current Version | Previous Version | Graphics & Text | Print | Product List | Glossary On
Versions: 1 2 3 4 5 6 7 8 9 10 11 12 13 14 15 16 17 18 19 20 21 22 23 24 25 26 27 28 29 30 31 32 33 34 35 36 37 38 39 40 41 42 43 44 45 46 47 48 49 50
000
ASUS43 KIND 230909
RWRIN

WEATHER ROUNDUP FOR INDIANA
NATIONAL WEATHER SERVICE INDIANAPOLIS IN
400 AM EST SUN NOV 23 2014

NOTE: "FAIR" INDICATES FEW OR NO CLOUDS BELOW 12,000 FEET WITH NO
SIGNIFICANT WEATHER AND/OR OBSTRUCTIONS TO VISIBILITY.

* - STATION DOES NOT REPORT WEATHER SUCH AS PRECIPITATION OR FOG.

+ - STATION NOT QUALITY CONTROLLED BY THE NATIONAL WEATHER SERVICE.
    USE DATA WITH CAUTION...ESPECIALLY DEWPOINT AND RELATIVE
    HUMIDITY OBSERVATIONS.

INZ001>003-010>013-019-020-231000-
NORTHWEST INDIANA

CITY           SKY/WX    TMP DP  RH WIND       PRES   REMARKS
GARY /AIRPORT/ DRIZZLE   51  46  84 S10G17    29.83F
KNOX *+        CLOUDY    47  44  89 S12G18    29.88F
LA PORTE +     CLOUDY    49  47  94 S8G16     29.88F
MICHIGAN CITY+ CLOUDY    48  43  81 S8G18     29.86F
MONTICELLO +   DRIZZLE   47  44  91 S7        29.89F
RENSSELAER +   CLOUDY    46  46 100 S9        29.86F
VALPARAISO     LGT RAIN  47  45  93 S9        29.86F

$$

LMZ046-743>745-231000-
SOUTHERN LAKE MICHIGAN

STATION/POSITION TIME  TEMP WIND        PRES
                       AIR  DIR/SP/G
                 (UTC) (F)  (DEG/KT/KT) (MB)
MICHIGAN CITY    0900   50  160/ 17/ 21   N/A

$$

INZ004-005-014>016-021>024-231000-
NORTH CENTRAL INDIANA

CITY           SKY/WX    TMP DP  RH WIND       PRES   REMARKS
GOSHEN         CLOUDY    48  43  82 S10       29.90F
LOGANSPORT +   LGT RAIN  45  43  93 SE6       29.91F
PERU/GRISSOM   LGT RAIN  47  47 100 SE8       29.91F
ROCHESTER +    DRIZZLE   46  45  93 S7        29.92S
SOUTH BEND     CLOUDY    49  45  86 S14       29.89F
WARSAW +       LGT RAIN  46  43  87 S8        29.92S

$$

INZ006>009-017-018-025>027-231000-
NORTHEAST INDIANA

CITY           SKY/WX    TMP DP  RH WIND       PRES   REMARKS
ANGOLA *+      CLOUDY    45  36  70 S6        29.92F
AUBURN +       DRIZZLE   46  41  81 S6        29.95F
FORT WAYNE     LGT RAIN  45  43  93 S8        29.95F
HUNTINGTON +   LGT RAIN  45  43  93 S5        29.93F

$$

INZ028-029-035-036-043>045-051>053-231000-
WEST CENTRAL INDIANA

CITY           SKY/WX    TMP DP  RH WIND       PRES   REMARKS
GREENCASTLE +  MOCLDY    52  41  66 S10G16    29.92F
LAFAYETTE      CLOUDY    47  43  86 SE7       29.89F
TERRE HAUTE    MOCLDY    49  39  68 S10       29.91F

$$

INZ030>032-037>040-046>048-054>057-064-065-231000-
CENTRAL INDIANA

CITY           SKY/WX    TMP DP  RH WIND       PRES   REMARKS
CP ATTERBURY + CLOUDY    46  37  71 S5        29.97F
FRANKFORT +    CLOUDY    46  46 100 E9        29.91F
INDIANAPOLIS   CLOUDY    49  38  65 SE12      29.92F
-EAGLE CREEK   CLOUDY    50  39  66 S7        29.92F
KOKOMO *+      CLOUDY    46  43  87 S9        29.92F
MARION +       LGT RAIN  44  43  97 S7        29.94F
MT COMFORT *+  CLOUDY    48  34  57 S12       29.94F
SHELBYVILLE    CLOUDY    49  40  71 S10       29.96F
ZIONSVILLE +   CLOUDY    47  40  78 S7        29.93F

$$

INZ033-034-041-042-049-050-058-059-231000-
EAST CENTRAL INDIANA

CITY           SKY/WX    TMP DP  RH WIND       PRES   REMARKS
MUNCIE         CLOUDY    48  40  73 S7        29.95F

$$

INZ060-061-067>069-081>083-085>088-231000-
SOUTHWEST INDIANA

CITY           SKY/WX    TMP DP  RH WIND       PRES   REMARKS
EVANSVILLE     PTCLDY    51  39  63 S8        29.95F
HUNTINGBURG *+ CLEAR     52  39  62 S6        29.97F
WASHINGTON +   CLEAR     49  41  73 S10       29.93F

$$

INZ062-063-066-070>080-084-089>092-231000-
SOUTH CENTRAL AND SOUTHEAST INDIANA

CITY           SKY/WX    TMP DP  RH WIND       PRES   REMARKS
BLOOMINGTON    CLOUDY    51  40  65 SE8       29.94F

$$



USA.gov is the U.S. government's official web portal to all federal, state and local government web resources and services.